Location: ??
(35.5052°N, 139.7262°E)
Time: 06:25:53
(UTC+00:00)

NOSS 3-1 (C) - Visible Passes

Search period start: 26 October 2021 00:00
Search period end: 05 November 2021 00:00
Orbit: 720 x 1488 km, 63.4° (Epoch: 24 October)

Date Brightness Start Highest point End Pass type
(mag) Time Alt. Az. Time Alt. Az. Time Alt. Az.
26 Oct 5.6 09:37:09 10° WNW 09:40:37 17° NW 09:44:25 10° N visible
26 Oct 6.4 17:24:28 11° SSE 17:24:28 11° SSE 17:24:43 10° SSE visible
27 Oct 5.0 08:50:22 10° WSW 08:54:46 26° NW 08:59:44 10° NNE visible
29 Oct 5.8 09:13:04 10° WNW 09:15:44 13° NW 09:18:33 10° N visible
30 Oct 5.3 08:25:48 10° W 08:29:46 21° NW 08:34:10 10° N visible
01 Nov 5.9 08:49:42 10° NW 08:50:53 11° NNW 08:52:06 10° NNW visible
